Weather Service Report


511 
ASUS42 KRAH 291710
RWRRAH
NORTH CAROLINA WEATHER ROUNDUP
NATIONAL WEATHER SERVICE RALEIGH NC
100 PM EDT SAT APR 29 2017

NOTE: "FAIR" INDICATES FEW OR NO CLOUDS BELOW 12,000 FEET WITH NO
SIGNIFICANT WEATHER AND/OR OBSTRUCTIONS TO VISIBILITY.

NCZ001-053-055-056-065-067-291800-
WESTERN NORTH CAROLINA
  
CITY           SKY/WX    TMP DP  RH WIND       PRES   REMARKS
ASHEVILLE      NOT AVBL                                               
JEFFERSON      SUNNY     75  65  70 SE8       30.25F                  
MORGANTON      MOSUNNY   81  68  66 CALM      30.23F                  
HICKORY        NOT AVBL                                               
RUTHERFORDTON  NOT AVBL                                               
MOUNT AIRY     CLOUDY    77  72  85 SW6       30.22F                  
BOONE          SUNNY     75  63  64 SE7       30.28S                  
$$
 
NCZ021-022-025-041-071-084-088-291800-
CENTRAL NORTH CAROLINA
  
CITY           SKY/WX    TMP DP  RH WIND       PRES   REMARKS
CHARLOTTE      PTSUNNY   83  69  62 S5        30.20F                  
GREENSBORO     CLOUDY    80  72  76 SW9G16    30.18F                  
WINSTON-SALEM  CLOUDY    80  67  64 VRB6      30.19F                  
RALEIGH-DURHAM PTSUNNY   85  70  60 SW12      30.18F                  
FORT BRAGG     SUNNY     85  67  54 SW9       30.18F                  
FAYETTEVILLE   MOSUNNY   87  69  54 S12G18    30.18F                  
BURLINGTON     CLOUDY    84  71  65 S8        30.17F                  
LAURINBURG     MOSUNNY   84  70  62 SW8       30.20F                  
$$
 
NCZ011-015-027-028-043-044-047-080-103-291800-
NORTHEASTERN NORTH CAROLINA
  
CITY           SKY/WX    TMP DP  RH WIND       PRES   REMARKS
ROCKY MT-WILSO MOSUNNY   84  71  65 S13G18    30.18F                  
GREENVILLE     MOSUNNY   86  70  58 SW13      30.19F                  
WASHINGTON     SUNNY     85  70  61 SW12      30.19F                  
ELIZABETH CITY LGT RAIN  85  74  69 SW13G22   30.16                   
MANTEO         SUNNY     83  69  61 W9        30.17F                  
CAPE HATTERAS  SUNNY     80  72  76 SW13G21   30.21F HAZE             
$$
 
NCZ078-087-090-091-093-098-101-291800-
SOUTHEASTERN NORTH CAROLINA
  
CITY           SKY/WX    TMP DP  RH WIND       PRES   REMARKS
LUMBERTON      MOSUNNY   85  71  63 S7G17     30.18F                  
GOLDSBORO      MOSUNNY   85  73  67 S9        30.18F                  
KINSTON        PTSUNNY   86  70  58 SW9       30.20F                  
KENANSVILLE    MOSUNNY   84  70  61 SW7       30.20F                  
NEW BERN       MOSUNNY   86  72  62 SW14      30.20F                  
CHERRY POINT   NOT AVBL                                               
BEAUFORT       SUNNY     80  75  84 SW14G24   30.22F                  
JACKSONVILLE   NOT AVBL                                               
WILMINGTON     MOSUNNY   84  70  62 SW14      30.21F                  
$$

  

Return to Home page


Western Regional Climate Center, wrcc@dri.edu